GRARBER Weather Reports


Display with metric or nautical units.
time (UTC)temp
F
wind
direction
speed
MPH
gust
MPH
rain 1hr
in
rain 24hr
in
rain mn
in
humidity
%
barometer
mb
20260901171855 55 270 12.0 0.0 0.00 0.00 0.00 66
20260901161955 57 270 9.0 0.0 0.00 0.00 0.00 67
20260901151655 57 260 14.0 22.0 0.00 0.00 0.00 62
20260901141854 57 280 10.0 17.0 0.00 0.00 0.00 67
20260901131755 55 260 15.0 26.0 0.00 0.00 0.00 71
20260901121655 54 260 14.0 22.0 0.00 0.00 0.00 76
20260901111755 52 260 14.0 22.0 0.00 0.00 0.00 87
20260901101955 50 250 13.0 22.0 0.00 0.00 0.00 87
20260901091655 48 250 14.0 24.0 0.00 0.00 0.00 99
20260901081855 46 260 18.0 29.0 0.00 0.00 0.00 99
20260901071855 46 260 20.0 30.0 0.00 0.00 0.00 99
20260901061654 46 260 20.0 31.0 0.00 0.00 0.00 99
20260901051754 48 250 20.0 29.0 0.00 0.00 0.00 99
20260901041954 48 250 20.0 28.0 0.00 0.00 0.00 99
20260901031654 48 250 17.0 24.0 0.00 0.00 0.00 99
20260901021855 48 260 20.0 26.0 0.00 0.00 0.00 99
20260901011855 48 260 22.0 31.0 0.00 0.00 0.00 99
20260901001655 48 270 24.0 33.0 0.00 0.00 0.00 99
20260831231811 48 270 21.0 31.0 0.00 0.00 0.00 93
20260831221955 50 280 24.0 37.0 0.00 0.00 0.00 87
20260831211654 52 260 24.0 35.0 0.00 0.00 0.00 81
20260831201855 54 260 22.0 31.0 0.00 0.00 0.00 71
20260831191855 54 270 23.0 33.0 0.00 0.00 0.00 71
20260831181655 54 270 22.0 30.0 0.00 0.00 0.00 76